Location: Del Oro Observatory
(38.3044°N, 104.8119°W)
Time: 01:00:47
(UTC-06:00)

Cosmos 1602 Rocket - Visible Passes

Search period start: 26 September 2016 00:00
Search period end: 06 October 2016 00:00
Orbit: 604 x 634 km, 82.5° (Epoch: 25 September)

Date Brightness Start Highest point End Pass type
(mag) Time Alt. Az. Time Alt. Az. Time Alt. Az.
26 Sep 6.7 04:43:04 10° ESE 04:45:12 13° E 04:47:19 10° ENE visible
26 Sep 3.9 06:18:18 10° SSW 06:22:35 46° W 06:26:52 10° N visible
27 Sep 5.9 04:58:40 10° SE 05:02:16 25° E 05:05:53 10° NE visible
28 Sep 4.6 05:15:11 10° SSE 05:19:27 47° E 05:23:42 10° NNE visible
29 Sep 3.5 05:32:16 10° S 05:36:43 87° W 05:41:09 10° N visible
30 Sep 6.6 04:14:21 10° ESE 04:16:39 14° E 04:18:55 10° NE visible
30 Sep 3.9 05:49:50 10° SSW 05:54:04 44° W 05:58:17 10° N visible
01 Oct 5.6 04:30:04 10° SE 04:33:44 26° E 04:37:24 10° NNE visible
01 Oct 4.7 06:07:56 10° SW 06:11:30 23° WNW 06:15:04 10° NNW visible
02 Oct 4.4 04:48:28 23° SSE 04:50:54 50° E 04:55:10 10° NNE visible
02 Oct 5.4 06:27:03 10° W 06:29:03 13° WNW 06:31:04 10° NW visible
03 Oct 3.4 05:07:06 51° SSW 05:08:10 82° W 05:12:35 10° N visible
04 Oct 6.4 03:48:15 15° E 03:48:15 15° E 03:50:30 10° NE visible
04 Oct 3.9 05:25:28 41° W 05:25:31 41° W 05:29:42 10° N visible
05 Oct 5.8 04:06:28 23° ENE 04:06:28 23° ENE 04:08:53 10° NNE visible
05 Oct 4.9 05:43:41 21° WNW 05:43:41 21° WNW 05:46:26 10° NNW visible
